Terminal Aerodrome Forecast
Issued by NWS Boston, MA

Home | Current Version | Previous Version | Text Only | Print | Product List | Glossary On
Versions: 1 2 3 4 5 6 7 8 9 10 11 12 13 14 15 16 17 18 19 20 21 22 23 24 25 26 27 28 29 30 31 32 33 34 35 36 37 38 39 40 41 42 43 44 45 46
000
FTUS41 KBOX 212323
TAFBOS
TAF
KBOS 212323Z 2200/2306 36007KT P6SM SCT015 OVC060
      TEMPO 2201/2203 6SM -SHSN OVC015
     FM220700 01007KT P6SM OVC020
     FM221800 05007KT P6SM OVC015=

USA.gov is the U.S. government's official web portal to all federal, state and local government web resources and services.